Home   Weather   Riverside   Past weeks

Flag for USA Past Weather in Riverside, California, USA — Yesterday and Last 2 Weeks

Now
60 °F

Scattered clouds.


Feels Like: 60 °F
Forecast: 53 / 83 °F
Wind: No wind

Location: Riverside Municipal Airport

Current Time: Apr 28, 2017 at 9:08:55 am

Latest Report: Apr 28, 2017 at 7:53 am


Visibility: 10 mi

Pressure: 29.77 "Hg

Humidity: 72%

Dew Point: 51 °F

Location of RiversideLocation

Past Weather in Riverside — Graph

°F

Riverside Temperature Yesterday

Maximum temperature yesterday: 77 °F (at 2:53 pm)
Minimum temperature yesterday: 55 °F (at 6:53 am)
Average temperature yesterday: 66 °F

High & Low Weather Summary for the Past Weeks

 TemperatureHumidityPressure
High95 °F (Apr 22, 2:53 pm)96% (Apr 14, 6:53 am)30.14 "Hg (Apr 14, 6:53 am)
Low48 °F (Apr 14, 4:53 am)9% (Apr 21, 2:53 pm)29.68 "Hg (Apr 27, 7:53 pm)
Average66 °F57%29.91 "Hg
* Reported Apr 13 7:53 am — Apr 28 7:53 am, Riverside, Weather by CustomWeather, © 2017

Note: Actual official high and low records may vary slightly from our data, if they occured in-between our weather recording intervals... More about our weather records

Advertising

Riverside Weather History for the Previous 24 Hours

Scroll right to see more
 ConditionsComfort  
Time TempWeatherWind HumidityBarometerVisibility
7:53 am
Fri, Apr 28
60 °FScattered clouds.No wind72%29.77 "Hg10 mi
6:53 am54 °FScattered clouds.No wind83%29.74 "Hg10 mi
5:53 am54 °FClear.3 mph80%29.72 "Hg10 mi
4:53 am55 °FClear.No wind80%29.70 "Hg10 mi
3:53 am56 °FClear.No wind84%29.70 "Hg10 mi
2:53 am59 °FClear.No wind72%29.68 "Hg10 mi
1:53 am61 °FClear.No wind70%29.68 "Hg10 mi
12:53 am63 °FClear.5 mph68%29.69 "Hg10 mi
11:53 pm
Thu, Apr 27
66 °FClear.No wind50%29.70 "Hg10 mi
10:53 pm68 °FClear.No wind44%29.70 "Hg10 mi
9:53 pm70 °FClear.10 mph41%29.70 "Hg10 mi
8:53 pm71 °FClear.9 mph41%29.69 "Hg10 mi
7:53 pm72 °FClear.6 mph41%29.68 "Hg10 mi
6:53 pm74 °FSunny.6 mph40%29.68 "Hg10 mi
5:53 pm75 °FSunny.12 mph40%29.69 "Hg10 mi
4:53 pm76 °FSunny.10 mph39%29.69 "Hg10 mi
3:53 pm75 °FSunny.12 mph47%29.70 "Hg10 mi
2:53 pm77 °FOvercast.10 mph45%29.70 "Hg10 mi
1:53 pm76 °FSunny.15 mph47%29.72 "Hg10 mi
12:53 pm76 °FSunny.5 mph45%29.73 "Hg10 mi
11:53 am73 °FPartly sunny.6 mph51%29.76 "Hg10 mi
10:53 am69 °FSunny.No wind57%29.77 "Hg10 mi
9:53 am64 °FPartly sunny.3 mph70%29.79 "Hg10 mi
Weather by CustomWeather, © 2017

See weather overviewHow to use our weather pages